This is the latest recevied weather packets stored in our database for station/object DN9EL-10. If no packets are shown the sender has not sent any weather packets the latest 10 day(s).
| Time | Temp. | Humidity | Pressure | Rain* | Wind** | Luminosity | Snow |
|---|---|---|---|---|---|---|---|
| 1777774716 | 10.56° C | 43% | 961.4 hPa | - | - | - | - |
| 1777773816 | 11.11° C | 43% | 961.5 hPa | - | - | - | - |
| 1777772916 | 11.11° C | 44% | 961.7 hPa | - | - | - | - |
| 1777772016 | 11.67° C | 43% | 961.8 hPa | - | - | - | - |
| 1777771116 | 11.67° C | 43% | 961.7 hPa | - | - | - | - |
| 1777770216 | 11.67° C | 42% | 961.9 hPa | - | - | - | - |
| 1777769316 | 12.22° C | 42% | 961.9 hPa | - | - | - | - |
| 1777768416 | 12.22° C | 41% | 961.9 hPa | - | - | - | - |
| 1777767516 | 12.78° C | 41% | 961.9 hPa | - | - | - | - |
| 1777766615 | 12.78° C | 41% | 962 hPa | - | - | - | - |
| 1777765715 | 13.33° C | 40% | 962.1 hPa | - | - | - | - |
| 1777764815 | 13.33° C | 40% | 962.3 hPa | - | - | - | - |
| 1777763915 | 13.89° C | 39% | 962.4 hPa | - | - | - | - |
| 1777763015 | 13.89° C | 39% | 962.5 hPa | - | - | - | - |
| 1777762115 | 14.44° C | 39% | 962.6 hPa | - | - | - | - |
| 1777761215 | 14.44° C | 38% | 962.6 hPa | - | - | - | - |
| 1777760315 | 15° C | 39% | 962.8 hPa | - | - | - | - |
| 1777759415 | 15° C | 38% | 962.8 hPa | - | - | - | - |
| 1777758515 | 15.56° C | 38% | 962.9 hPa | - | - | - | - |
| 1777757614 | 16.11° C | 38% | 962.9 hPa | - | - | - | - |
| 1777756714 | 16.11° C | 37% | 962.9 hPa | - | - | - | - |
| 1777755814 | 16.67° C | 36% | 963.1 hPa | - | - | - | - |
| 1777754914 | 17.22° C | 36% | 963.1 hPa | - | - | - | - |
| 1777754014 | 17.78° C | 36% | 963.1 hPa | - | - | - | - |
| 1777753114 | 18.33° C | 36% | 963.2 hPa | - | - | - | - |
* Rain since midnight (hover to see other rain measurements)
** Current wind speed in m/s (hover to see current wind gust speed)